Weather History for Chattanooga, TN

Change the Weather History Date:

Sunday, July 14, 2013

  Actual Average Record
Temperature  
Mean Temperature 79 °F 80 °F  
Max Temperature 86 °F 90 °F 103 °F (1954)
Min Temperature 72 °F 70 °F 56 °F (1967)
Degree Days  
Heating Degree Days 0 0  
Month to date heating degree days 0 0  
Since 1 June heating degree days 0 2  
Since 1 July heating degree days 0 0  
Cooling Degree Days 14 15  
Month to date cooling degree days 164 206  
Year to date cooling degree days 739 747  
Since 1 June cooling degree days 563 551  
Growing Degree Days 29 (Base 50)    
Moisture  
Dew Point 70 °F    
Average Humidity 77    
Maximum Humidity 93    
Minimum Humidity 61    
Precipitation  
Precipitation 0.10 in 0.18 in 4.61 in (1949)
Month to date precipitation 7.17 2.23  
Year to date precipitation 46.31 29.10  
Snow  
Snow 0.00 in 0.00 in - ()
Month to date snowfall 0.0 0.0  
Since 1 June snowfall 0.0 0.0  
Since 1 July snowfall 0.0 0.0  
Snow Depth 0.00 in    
Sea Level Pressure  
Sea Level Pressure 30.11 in    
Wind  
Wind Speed 5 mph (ENE)    
Max Wind Speed 22 mph    
Max Gust Speed 28 mph    
Visibility 9 miles    
Events Fog , Rain    
T = Trace of Precipitation, MM = Missing Value Source: NWS Daily Summary

Daily Weather History Graph

Daily Weather History Graph

Search for Another Location

Airport:

Trip Planner

Search our weather history database for the weather conditions in past years. The results will help you decide how hot, cold, wet, or windy it might be!

Date:

Astronomy

Jul. 14, 2013 Rise Set
Actual Time 6:37 AM EDT 8:55 PM EDT
Civil Twilight 6:08 AM EDT 9:24 PM EDT
Nautical Twilight 5:32 AM EDT 10:00 PM EDT
Astronomical Twilight 4:54 AM EDT 10:38 PM EDT
Moon 12:37 PM EDT (7/14) No Moon Set
Length of Visible Light 15h 15m
Length of Day
14h 17m
Waxing Crescent, 35% of the Moon is Illuminated
Jul 14
Waxing Crescent
Jul 15
First Quarter
Jul 22
Full
Jul 29
Last Quarter
Aug 6
New

Hourly Weather History & Observations

Time (EDT) Temp. Heat Index Dew Point Humidity Pressure Visibility Wind Dir Wind Speed Gust Speed Precip Events Conditions
12:53 AM 75.0 °F - 70.0 °F 84% 30.06 in 10.0 mi Calm Calm - N/A   Clear
1:53 AM 73.0 °F - 70.0 °F 90% 30.06 in 10.0 mi Calm Calm - N/A   Scattered Clouds
2:53 AM 73.0 °F - 69.1 °F 87% 30.05 in 10.0 mi Calm Calm - N/A   Partly Cloudy
3:53 AM 72.0 °F - 70.0 °F 93% 30.05 in 10.0 mi Calm Calm - N/A   Overcast
4:53 AM 73.0 °F - 71.1 °F 93% 30.06 in 9.0 mi ENE 6.9 mph - N/A   Overcast
5:05 AM 73.4 °F - 71.6 °F 94% 30.09 in 2.0 mi East 5.8 mph - 0.05 in Rain Heavy Rain
5:21 AM 73.4 °F - 71.6 °F 94% 30.09 in 4.0 mi Calm Calm - 0.09 in Rain Rain
5:53 AM 73.0 °F - 70.0 °F 90% 30.08 in 6.0 mi Calm Calm - 0.10 in   Mostly Cloudy
6:32 AM 73.4 °F - 71.6 °F 94% 30.11 in 4.0 mi North 4.6 mph - 0.00 in Fog , Rain Light Rain
6:53 AM 73.0 °F - 70.0 °F 90% 30.10 in 5.0 mi NNE 5.8 mph - 0.00 in Fog Patches of Fog
7:53 AM 73.0 °F - 70.0 °F 90% 30.10 in 6.0 mi NE 6.9 mph - N/A Fog Patches of Fog
8:53 AM 73.9 °F - 71.1 °F 91% 30.12 in 7.0 mi NNE 4.6 mph - N/A   Mostly Cloudy
9:53 AM 75.9 °F - 70.0 °F 82% 30.13 in 10.0 mi NNE 5.8 mph - N/A   Mostly Cloudy
10:53 AM 79.0 °F - 72.0 °F 79% 30.13 in 10.0 mi NE 3.5 mph - N/A   Mostly Cloudy
11:05 AM 78.8 °F - 71.6 °F 78% 30.15 in 10.0 mi ENE 5.8 mph - N/A   Mostly Cloudy
11:53 AM 80.1 °F 83.8 °F 72.0 °F 76% 30.14 in 10.0 mi Calm Calm - N/A   Mostly Cloudy
12:24 PM 82.4 °F 87.2 °F 71.6 °F 70% 30.16 in 10.0 mi Variable 6.9 mph - N/A   Mostly Cloudy
12:53 PM 82.0 °F 85.9 °F 70.0 °F 67% 30.13 in 10.0 mi Variable 6.9 mph - N/A   Mostly Cloudy
1:53 PM 84.0 °F 88.4 °F 70.0 °F 63% 30.13 in 10.0 mi ESE 11.5 mph - 0.00 in   Mostly Cloudy
2:53 PM 82.9 °F 87.5 °F 71.1 °F 67% 30.12 in 10.0 mi ESE 6.9 mph - 0.00 in   Mostly Cloudy
3:53 PM 82.9 °F 88.0 °F 72.0 °F 69% 30.11 in 10.0 mi East 9.2 mph - 0.00 in   Mostly Cloudy
4:53 PM 84.0 °F 88.4 °F 70.0 °F 63% 30.09 in 10.0 mi ESE 10.4 mph - N/A   Mostly Cloudy
5:53 PM 84.9 °F 88.8 °F 69.1 °F 59% 30.09 in 10.0 mi ESE 8.1 mph - N/A   Mostly Cloudy
6:53 PM 84.0 °F 88.4 °F 70.0 °F 63% 30.10 in 10.0 mi NE 8.1 mph - N/A   Mostly Cloudy
7:53 PM 82.0 °F 85.9 °F 70.0 °F 67% 30.11 in 10.0 mi ENE 13.8 mph 17.3 mph N/A   Mostly Cloudy
8:53 PM 77.0 °F - 71.1 °F 82% 30.14 in 10.0 mi ENE 6.9 mph - 0.00 in   Mostly Cloudy
9:53 PM 77.0 °F - 71.1 °F 82% 30.16 in 10.0 mi Calm Calm - N/A   Mostly Cloudy
10:53 PM 77.0 °F - 69.1 °F 76% 30.19 in 10.0 mi Variable 4.6 mph - N/A   Mostly Cloudy
11:53 PM 77.0 °F - 69.1 °F 76% 30.19 in 10.0 mi Calm Calm - N/A   Mostly Cloudy